METEOSAT-12 (MTG-I1)

Last updated on Wed Sep 09 2026 00:02:41 GMT+0000 (Coordinated Universal Time)

1 54743U 22170C 26251.30242588 -.00000029 00000+0 00000+0 0 9993 2 54743 0.7725 25.5325 0003626 88.4510 341.8167 1.00269913 13815
UTC large
Height (km)
Speed (km/s)
/
Latitude / Longitude
Inclination (degrees)
Orbital Period (minutes)
Azimuth
Elevation
Range (km)
Doppler Factor

Next 0 passes for location: London (51.5072 / 0.1276)

No passes found over London.
METEOSAT-12 (MTG-I1)